STARLINK-4453, 53497

Orbit data source: Space-Track

STARLINK-4453, 53497 is a payload satellite owned by SpaceX/Seattle (US) in SSO that was launched on Fri, 12 Aug 2022 UTC via an FALCON 9 launch vehicle from the Air Force Western Test Range (AFWTR). Payload-class satellites include a variety of spacecraft equipped with specific instruments for various scientific and technological missions. These include communications satellites like Starlink; space stations such as the ISS; scientific satellites like the Hubble; Earth observation satellites from companies like Planet Labs, Umbra, and HawkEye 360; GPS; miniature CubeSats for education and research; and military/defense satellites.

Loading next visibility...
Identifier
53497, 2022-099AJ
Orbit
SSO
Country
Flag of USUS
Related business
Manufacturer
SpaceX/Seattle
Mission
Operational Commercial Communications
Bus & Motor
STARLINK, Unknown motor
Mass
300 kg wet, ~275 kg dry
Launch date (UTC)
2022-08-12 (3 years ago)
Launch vehicle
FALCON 9
Launch site
Air Force Western Test Range (AFWTR)
Object type
Payload
Rocket body
Debris
Shape & HBR
Box + 1 Pan, 10.1 m
Radar Cross Section
13.562 m², Large (>1 m²)

Expand to show TLE details & history
Last TLE update: 9 hours ago

TLE from 9 hours ago
0 STARLINK-4453
1 53497U 22099AJ  25346.89629638  .00000695  00000-0  58622-4 0  9998
2 53497  97.6045 105.2344 0001672 193.9924 166.1255 15.01261526182964
Epoch: 2025-12-12T21:30Z
TLE epoch observation values (Epoch: 2025-12-12T21:30:40.007Z)
Latitude
0.00006°
Longitude
60.73635°
Altitude
567.191 km
Speed
7.577 km/s
True Right ascension
07h 00m 56s
True Declination
0° 00' 00"
Sunlit
Object was in full shadow at epoch
Visualization orbit readout
Latitude
Unknown
Longitude
Unknown
Altitude
Unknown
Speed
Unknown
Apparent Right ascension
Unknown
Apparent Declination
Unknown
Sunlit
N/A
Visualization observer readout
Local Sidereal Time
05:21:14
Azimuth
Unknown
Elevation
Unknown
Doppler factor
Unknown
Orbital elements
Apogee altitude
561.165 km
Perigee altitude
558.844 km
Semi-major axis
6,938.142 km
Eccentricity
0.00017
Inclination
97.6045°
RAAN
105.2344°
Arg. of periapsis
193.9924°
True anomaly
166.13009°
Mean anomaly
166.1255°
Eccentric anomaly
166.1278°
Mean motion
3.75559 °/min
Orbital period
95.86 mins
BSTAR
0.000058622
Loading maneuver chart data...
Computing Atmospheric mass density...
Loading historical data...
Loading historical data...
Loading historical data...
Loading historical data...
Loading historical data...
Loading historical data...
Loading historical data...

Documentation

Showing up to 5 results
|